Regional Weather Roundup
Issued by NWS

Home | Current Version | Previous Version | Graphics & Text | Print | Product List | Glossary On
Versions: 1 2 3 4 5 6 7 8 9 10 11 12 13 14 15 16 17 18 19 20 21 22 23 24 25 26 27 28 29 30 31 32 33 34 35 36 37 38 39 40 41 42 43 44 45 46 47 48 49 50
945
ASUS43 KLSX 222259
RWRMO

WEATHER SUMMARY FOR MISSOURI
NATIONAL WEATHER SERVICE SPRINGFIELD MO
600 PM CDT WED MAR 22 2017

NOTE: "FAIR" INDICATES FEW OR NO CLOUDS BELOW 12,000 FEET WITH NO
       SIGNIFICANT WEATHER AND/OR OBSTRUCTIONS TO VISIBILITY.
       CURRENT SKY AND/OR WEATHER CONDITIONS ARE NOT AVAILABLE FOR
       CHILLICOTHE AND FARMINGTON.

MOZ001>031-035>038-043-044-053-054-230000-
...NORTHERN AND WESTERN MISSOURI...

CITY           SKY/WX    TMP DP  RH WIND       PRES   REMARKS
KANSAS CTY INT CLOUDY    54  25  32 E20       30.23S
KANSAS C DTWN  CLOUDY    56  26  31 E12       30.21F
LEE`S SUMMIT   CLOUDY    54  26  34 E13       30.23S
ST JOSEPH      MOSUNNY   55  25  31 SE14      30.23S
CHILLICOTHE      N/A     49  25  39 E10G21    30.31F
KIRKSVILLE     CLOUDY    46  19  34 E12       30.35F

$$
MOZ066>068-077>081-088>096-101>105-230000-
...SOUTHWEST MISSOURI...

CITY           SKY/WX    TMP DP  RH WIND       PRES   REMARKS
SPRINGFIELD    CLOUDY    58  32  37 SE14      30.20S
JOPLIN         CLOUDY    56  35  45 E13G22    30.18F
BRANSON        CLOUDY    54  36  50 E14       30.23F

$$
MOZ032>034-039>042-045>050-055>058-069>072-230000-
...CENTRAL MISSOURI...

CITY           SKY/WX    TMP DP  RH WIND       PRES   REMARKS
COLUMBIA       SUNNY     52  24  33 E15       30.29F
JEFFERSON CITY SUNNY     55  22  27 E14       30.29F
ROLLA          SUNNY     52  24  33 E15       30.27F
SEDALIA        MOSUNNY   55  24  30 E14       30.28R
WARRENSBURG    PTSUNNY   54  27  35 E15       30.25S
OSAGE BEACH    MOSUNNY  N/A N/A N/A E12       30.26F

$$
MOZ051-052-059>065-230000-
...EAST CENTRAL MISSOURI...

CITY           SKY/WX    TMP DP  RH WIND       PRES   REMARKS
ST LOUIS INTL  PTSUNNY   51  17  26 E12       30.37F
SPIRIT OF STL  SUNNY     50  16  25 E9        30.36S
ST CHARLES     SUNNY     50  14  23 E13       30.37S

$$
MOZ072>076-082>087-097>100-106>115-230000-
...SOUTH CENTRAL AND SOUTHEAST MISSOURI...

CITY           SKY/WX    TMP DP  RH WIND       PRES   REMARKS
CAPE GIRARDEAU SUNNY     54  22  28 NE12      30.34R
FARMINGTON     SUNNY     51  25  36 E8        30.34F
POPLAR BLUFF   SUNNY     56  30  37 NE13      30.32F
WEST PLAINS    CLOUDY    58  30  34 E8        30.26F

$$




USA.gov is the U.S. government's official web portal to all federal, state and local government web resources and services.